Regional Weather Roundup
Issued by NWS Albany, NY

Home | Current Version | Previous Version | Text Only | Print | Product List | Glossary On
Versions: 1 2 3 4 5 6 7 8 9 10 11 12 13 14 15 16 17 18 19 20 21 22 23 24 25 26 27 28
000
ASUS41 KALY 271510
RWRALY

NEW YORK STATE HOURLY WEATHER ROUNDUP
NATIONAL WEATHER SERVICE ALBANY NY
1000 AM EST MON FEB 27 2017

NOTE: "FAIR" INDICATES FEW OR NO CLOUDS BELOW 12,000 FEET WITH NO
SIGNIFICANT WEATHER AND/OR NO OBSTRUCTIONS TO VISIBILITY.

NYZ032-033-038>043-046>054-057>066-NYZ062>081-082-084-271600-
EAST


CITY           SKY/WX    TMP DP  RH WIND       PRES   REMARKS
ALBANY         PTSUNNY   40  20  44 S10       30.30R WCI  33
GLENS FALLS    SUNNY     39  20  46 S12G18    30.26S WCI  32
POUGHKEEPSIE   SUNNY     41  19  41 SW10      30.37R
NEWBURGH       SUNNY     43  21  42 W14       30.38R
MONTGOMERY     CLOUDY    41  22  46 SW14      30.36R
WHITE PLAINS   CLOUDY    42  20  41 SW5       30.40R
ISLIP          PTSUNNY   45  25  45 SW16G25   30.42R
NEW YORK CITY  PTSUNNY   46  23  40 SW10      30.43R
CENTRAL PARK   MOSUNNY   43  22  43 VRB6      30.45R
$$

NYZ005>009-017-018-044>046-055-056-271600-
CENTRAL


CITY           SKY/WX    TMP DP  RH WIND       PRES   REMARKS
FULTON         SUNNY     42  22  44 SW12      30.23R
SYRACUSE       MOSUNNY   45  21  38 SW17G23   30.24R
ROME           MOSUNNY   42  24  49 SW8       30.25S
ELMIRA         CLOUDY    41  16  36 SW14      30.29R
BINGHAMTON     CLOUDY    37  16  42 SW13      30.26R WCI  29
MONTICELLO     CLOUDY   N/A N/A N/A W6        30.33R
$$

NYZ026>034-041>043-087-271600-
NORTH


CITY           SKY/WX    TMP DP  RH WIND       PRES   REMARKS
WATERTOWN      CLOUDY    41  24  51 SW18      30.20R
FORT DRUM      NOT AVBL
OGDENSBURG     FAIR      43  29  58 SW17G26   30.14R
MASSENA        CLOUDY    41  27  57 SW14G21   30.14R
SARANAC LAKE   CLOUDY    33  23  66 SW15G29   30.11R WCI  23
PLATTSBURGH    SUNNY     36  23  59 SE9       30.15R WCI  29
$$

NYZ001>004-010>016-019>021-085-271600-
WEST


CITY           SKY/WX    TMP DP  RH WIND       PRES   REMARKS
NIAGARA FALLS  SUNNY     44  26  49 SW17      30.22R
BUFFALO        MOSUNNY   43  21  41 SW24G31   30.21R
DUNKIRK        SUNNY     44  21  40 SW16G24   30.24S
JAMESTOWN      CLOUDY    36  18  48 SW13      30.23R WCI  27
WELLSVILLE     CLOUDY    39  15  37 SW14G22   30.24R WCI  31
ROCHESTER      MOSUNNY   46  23  40 W16G25    30.22R
$$

             KEY
       WCI = WIND CHILL INDEX
       VSB = VISIBILITY
       HX  = HEAT INDEX
$$




USA.gov is the U.S. government's official web portal to all federal, state and local government web resources and services.